Location: York
(31.8935°S, 116.7682°E)
Time: 00:37:29
(UTC+08:00)

Hubble Space Telescope - Pass Details

Date: 23 May 2021
Orbit: 535 x 539 km, 28.5° (Epoch: 19 June)

Event Time Altitude Azimuth Distance (km) Brightness Sun altitude
Rises 19:53:12 0° 272° (W) 2,692 5.5 -32.2°
Reaches altitude 10° 19:55:44 10° 285° (WNW) 1,798 4.3 -32.8°
Enters shadow 19:57:07 17° 299° (WNW) 1,394 3.5 -33.0°
